Location: Rounton
(54.4000°N, 1.3500°W)
Time: 11:41:44
(UTC+01:00)

deb r/b Ablestar - Pass Details

Date: 06 July 2022
Orbit: 680 x 853 km, 66.7° (Epoch: 16 August)

Event Time Altitude Azimuth Distance (km) Brightness Sun altitude
Exits shadow 03:19:56 - 182° (S) 2,795 ? -8.0°
Reaches altitude 10° 03:20:56 10° 178° (S) 2,456 ? -7.9°
Maximum altitude 03:26:00 34° 115° (ESE) 1,377 ? -7.6°
Drops below altitude 10° 03:31:07 10° 53° (NE) 2,492 ? -7.2°
Sets 03:33:47 0° 44° (NE) 3,427 ? -7.0°
